www.pogodaiklimat.ru

Погода и климат >> Архив погоды >> Китай >> Shisan Jianfang


ПОГОДА в Shisan Jianfang

  • Прогноз погоды в Shisan Jianfang
  • Монитор погоды в Shisan Jianfang
  • Климат города

АРХИВ ПОГОДЫ в Shisan Jianfang

Время (UTC), дата Ветер
(напр.,м/с)
 
Видим.   Явления Облачность Т
(С)
Тd
(С)
f
(%)
Тe
(С)
Тes
(С)
Комфортность P
(гПа)
Po
(гПа)
Тmin
(С)
Tmax
(С)
R
(мм)
S
(см)
03 21.03 С 23
{30}
18 км 8/8
[]
+1.7 -11.4 37 -8 -8 1014.4 1014.0
06 21.03 С 19
{30}
22 км 5/5
[]
+5.0 -10.3 32 -2 -2 1013.7 1013.8 +0.2
09 21.03 С 22
{30}
23 км ясно +5.4 -8.8 35 -2 -2 1012.7 1013.0
12 21.03 С 24
{28}
20 км 4/4
[]
+1.0 -10.2 43 -9 -9 1012.6 1013.0
18 21.03 С 19
{29}
16 км ?/? -1.4 -8.6 58 -12 -12 1014.5 927.9 +6.9
21 21.03 С 20
{30}
3100 м дымка ?/? -4.3 -5.7 90 -17 -17 1014.6 1015.0
00 22.03 С 23
{30}
24 км 9/9
[]
-2.5 -11.7 49 -14 -14 1016.2 1030.5 0.0
03 22.03 С 20
{32}
26 км 9/9
[]
+0.5 -14.7 31 -9 -9 1017.6 1018.0
06 22.03 С 19
{32}
26 км ясно +2.7 -14.0 28 -5 -5 1021.4 1021.0 -4.5
09 22.03 С 16
{31}
22 км 1/1 1500 м
[]
+2.3 -11.6 35 -6 -6 1023.5 1024.0
12 22.03 С 15
{25}
26 км 3/3 1500 м
[]
+0.6 -10.8 42 -8 -8 1025.6 1026.0
15 22.03 С 15
{25}
26 км 3/3 1500 м
[]
+0.6 -10.8 42 -8 -8 1025.6 1026.0
18 22.03 С 13
{24}
25 км ?/? -0.1 -14.4 33 -8 -8 1028.0 1028.0 +3.1
21 22.03 С 10
{24}
25 км ?/? +1.4 -14.7 29 -5 -5 1027.8 1028.0
00 23.03 С 11 30 км 9/9
[]
-0.4 -14.3 34 -8 -8 1028.7 1029.0
03 23.03 С 11 30 км 3/3
[]
+6.3 -13.9 22 +1 +1 1028.5 1029.0
06 23.03 С 9 30 км ясно +10.9 -14.7 15 +8 +9 1026.8 1027.0 -0.6
09 23.03 С 12
{19}
30 км ясно +11.0 -13.9 16 +7 +7 1025.6 1026.0
12 23.03 С 14
{20}
30 км ясно +6.7 -11.9 25 +1 +1 1029.1 1029.0
18 23.03 С 13
{19}
20 км ?/? +1.7 -12.1 35 -6 -6 1031.3 1031.0 +11.7
21 23.03 С 12
{19}
27 км ?/? +1.3 -12.5 35 -6 -6 1031.2 1031.0
00 24.03 С 12
{18}
30 км ясно +1.1 -12.3 36 -6 -6 1033.0 945.5
03 24.03 С 8 27 км ясно +7.1 -13.2 22 +3 +4 1034.5 917.0
06 24.03 С 9 30 км ясно +11.5 -23.2 7 +9 +10 1031.9 945.3 +0.9
09 24.03 С 10 30 км ясно +12.9 -31.4 3 +10 +11 1030.0 1030.0
12 24.03 С 9 30 км ясно +9.8 -26.2 6 +7 +7 1030.4 1030.0
18 24.03 ЮВ 9 30 км ?/? +6.3 -17.0 17 +2 +2 1030.8 944.9 +13.2
21 24.03 В 6 30 км ?/? +4.9 -18.1 17 +1 +1 1031.3 1031.0
00 25.03 В 8 30 км 9/9
[]
+4.6 -18.4 17 -0 -0 1031.9 1046.4
03 25.03 Ю 9 30 км 9/9
[]
+9.3 -17.7 13 +6 +6 1032.0 1032.0
06 25.03 Ю 7 30 км 9/9
[]
+12.7 -18.2 10 +11 +11 1029.2 1029.0 +3.8
09 25.03 Ю 4 30 км 9/9
[]
+13.1 -19.1 9 +12 +12 1026.1 1026.0
12 25.03 З 2 30 км 4/4
[]
+11.8 -21.4 8 +12 +12 1025.7 1026.0
18 25.03 С 5 24 км ?/? +3.7 -19.8 16 0 0 1024.7 1025.0 +13.6
21 25.03 С 5 17 км ?/? +2.3 -20.3 17 -2 -2 1023.8 1024.0
00 26.03 С 5 19 км 9/9
[]
+1.5 -20.3 18 -3 -3 1024.4 1024.0
03 26.03 Ю 1 22 км 9/9
[]
+9.8 -20.4 10 +10 +11 1025.1 1025.0
06 26.03 Ю 3 22 км 5/5
[]
+14.3 -21.1 7 +14 +19 1023.1 1023.0 +1.5
09 26.03 З 4 13 км 9/9
[]
+15.1 -20.5 7 +14 +15 1020.4 1020.0
12 26.03 З 2 12 км 9/9
[]
+13.8 -19.9 8 +14 +14 1019.1 1019.0
18 26.03 СВ 5 8000 м ?/? +7.1 -18.6 14 +4 +4 1016.5 932.3 +16.0
21 26.03 СВ 5 11 км ?/? +6.2 -18.5 15 +3 +3 1015.6 1016.0
00 27.03 С 4 12 км 9/9
[]
+7.3 -18.5 14 +5 +5 1017.0 1030.8
03 27.03 Ю 4 11 км 9/9
[]
+13.6 -17.5 10 +13 +13 1018.4 1018.0
06 27.03 Ю 1 15 км 9/9
[]
+16.8 -17.7 8 +18 +19 1018.5 1019.0 +6.0
09 27.03 С 12 14 км 9/9
[]
+14.1 -5.1 26 +11 +11 1017.1 1017.0
12 27.03 С 16
{21}
10 км 9/9
[]
+10.9 -5.6 31 +6 +6 1017.8 1018.0
18 27.03 С 15
{24}
14 км ?/? +9.2 -6.6 32 +4 +4 1018.6 934.9 +17.7
21 27.03 С 13
{21}
15 км ?/? +9.0 -6.0 34 +4 +4 1018.1 1018.0
00 28.03 С 13
{21}
22 км 9/9
[]
+9.4 -6.1 33 +5 +5 1019.7 1020.0

 

Местоположение метеостанции Shisan Jianfang (Китай): широта 43.22 долгота 91.73 высота над уровнем моря 792 м.

В архиве по умолчанию представлена погода в Shisan Jianfang за последнюю неделю. Архивные данные за месяц целиком и за предыдущие месяцы, начиная с января 2011 года, Вы можете получить, выбрав интересующий диапазон дат из раскрывающегося списка и нажав кнопку "Ввод!".

Внимание! Время в таблицах - всемирное. Для получения местного времени необходимо прибавить поправку, которая в Shisan Jianfang равна 8 ч.

Смотрите также архив погоды в соседних городах и на ближайших метеорологических станциях:

Погода в Hami (Китай) (152 км)
Погода в Qitai (Китай) (195 км)
Погода в Turpan (Китай) (208 км)
Погода в Beita Shan (Китай) (258 км)
Погода в Naomaohu (Китай) (278 км)
Погода в Baitag (Монголия) (323 км)
Погода в Urumqi (Китай) (335 км)
Погода в Tonhil (Монголия) (385 км)
Погода в Jargalant (Монголия) (415 км)
Погода в Dunhuang (Китай) (420 км)

Пояснения к столбцам:

Ветер - указаны скорость ветра в м/с - средняя за 10 мин, порывы в срок и между сроками (в фигурных скобках) и направление, откуда дует ветер: С - северный, СВ - северо-восточный, В - восточный, ЮВ - юго-восточный, Ю - южный, ЮЗ - юго-западный, З - западный, СЗ - северо-западный.
Видимость - горизонтальная дальность видимости в метрах или километрах. При видимости от 1 до 10 км при отсутствии осадков обычно наблюдается дымка, при ухудшении видимости до 1 км и менее - туман. В сухую погоду видимость может ухудшаться дымом, пылью или мглою.
Явления - указаны атмосферные явления, наблюдавшиеся в срок или в последний час перед сроком; фигурными скобками обозначены явления, наблюдавшиеся между сроками (за 1-3 часа до срока); квадратными скобками обозначены град или гололедные отложения с указанием их диаметра в мм.
Облачность - указаны через наклонную черту общая и нижняя облачность в баллах и высота нижней границы облаков в метрах; квадратными скобками обозначены формы облаков: Ci - перистые, Cs - перисто-слоистые, Cc - перисто-кучевые, Ac - высококучевые, As - высокослоистые, Sc - слоисто-кучевые, Ns - слоисто-дождевые, Cu - кучевые, Cb - кучево-дождевые. Подробнее классификацию облаков см. в Атласе облаков (PDF).
T - Температура воздуха - температура, измеренная на высоте 2 м над землей.
Td - Температура точки росы - температура, при понижении до которой содержащийся в воздухе водяной пар достигнет насыщения.
f - Относительная влажность воздуха - влажноcть воздуха, измеренная на высоте 2 м над землей.
Te - Эффективная температура - температура, которую ощущает одетый по сезону человек в тени. Характеристика душности погоды. При расчете учитывается влияние влажности воздуха и скорости ветра на теплоощущения человека.
Tes - Эффективная температура на солнце - температура, которую ощущает человек, с поправкой на солнечный нагрев. Характеристика знойности погоды. Зависит от высоты солнца над горизонтом, облачности и скорости ветра. Ночью, в пасмурную погоду, а также при ветре 12 м/с и более поправка равна нулю.
P - Атмосферное давление - приведенное к уровню моря атмосферное давление.
Po - Атмосферное давление - измеренное на уровне метеостанции атмосферное давление.
Tmin - Минимальная температура - минимум температуры воздуха на высоте 2 м над землей.
Tmax - Максимальная температура - максимум температуры воздуха на высоте 2 м над землей.
R - Количество осадков - Количество выпавших осадков, мм. При наведении курсора мыши на число - период времени, за который выпало указанное количество осадков.
S - Снежный покров - Высота снежного покрова, см. При наведении курсора мыши на число - состояние снежного покрова и степень покрытия местности в баллах.